Regional Weather Roundup
Issued by NWS

Home | Current Version | Previous Version | Graphics & Text | Print | Product List | Glossary Off
Versions: 1 2 3 4 5 6 7 8 9 10 11 12 13 14 15 16 17 18 19 20 21 22 23 24 25 26 27 28 29 30 31 32 33 34 35 36 37 38 39 40 41 42 43 44 45 46 47 48 49 50

000
ASUS43 KDMX 260408
RWRIA

WEATHER ROUNDUP FOR IOWA
NATIONAL WEATHER SERVICE DES MOINES IA
1100 PM CDT THU AUG 25 2016

NOTE: "FAIR" INDICATES FEW OR NO CLOUDS BELOW 12,000 FEET WITH NO
SIGNIFICANT WEATHER AND/OR OBSTRUCTIONS TO VISIBILITY.

* - THESE STATIONS ARE NOT NWS STATIONS...THUS NOT UNDER NWS
QUALITY CONTROL.  THEY ALSO DO NOT REPORT WEATHER SUCH
AS PRECIPITATION OR FOG.

IAZ001>003-012>014-020>022-031>034-043>046-260500-
   NORTHWEST IOWA

CITY           SKY/WX    TMP DP  RH WIND       PRES   REMARKS
CARROLL *      CLEAR     61  59  94 NW5       30.15S
CHEROKEE *     CLEAR     59  59 100 CALM      30.16S
DENISON *      CLOUDY    61  59  94 CALM      30.14S
LE MARS *      CLEAR     59  57  94 SW3       30.17S
ORANGE CITY *  CLEAR     63  59  88 CALM      30.17S
SHELDON *      CLEAR     55  55 100 CALM      30.15F
SIOUX CITY     CLEAR     61  57  87 CALM      30.16S
SPENCER        CLEAR     57  55  93 CALM      30.17R
STORM LAKE *   CLEAR     61  59  94 W6        30.17S
$$

IAZ055>058-069>071-079>083-090>094-260500-
   SOUTHWEST IOWA

CITY           SKY/WX    TMP DP  RH WIND       PRES   REMARKS
ATLANTIC *     CLOUDY    61  61 100 N6        30.14S
AUDUBON *      CLOUDY    59  55  88 CALM      30.17S
CLARINDA *       N/A     63  63 100 MISG      30.15S
COUNCIL BLFS * PTCLDY    64  63  94 N7        30.15S
CRESTON *      CLEAR     64  61  88 N7        30.15S
HARLAN  *      CLOUDY    63  61  94 N5        30.18S
LAMONI         CLEAR     64  63  96 NE5       30.13R
RED OAK *      PTCLDY    63  63 100 CALM      30.14S
SHENANDOAH *   CLOUDY    63 N/A N/A CALM      30.14R
$$

IAZ047>049-059>061-072>074-084-260500-
   CENTRAL IOWA

CITY           SKY/WX    TMP DP  RH WIND       PRES   REMARKS
AMES           CLEAR     61  61 100 CALM      30.13S
ANKENY *         N/A    N/A N/A N/A MISG        N/A
BOONE *        CLEAR     66  61  82 CALM      30.13S
CHARITON *       N/A     64  63  94 MISG      30.13S
DES MOINES     CLEAR     68  62  81 CALM      30.12S
GRINNELL*      CLEAR     63  61  95 NW3       30.13F
KNOXVILLE *    CLEAR     64  63  94 CALM      30.12S FOG
MARSHALLTOWN   CLEAR     65  64  97 NW3       30.12S
NEWTON *       CLEAR     64  64 100 CALM      30.12S
PELLA *        FOG       63  62  97 CALM      30.14R VSB 1/2
PERRY *          N/A     63  62  98 W3        30.14S
$$

IAZ004>006-015-016-023>025-035-036-260500-
   NORTH CENTRAL IOWA

CITY           SKY/WX    TMP DP  RH WIND       PRES   REMARKS
ALGONA *       CLEAR     63  59  88 NW6       30.16R
ESTHERVILLE    CLEAR     56  56 100 W6        30.16R
FORT DODGE *   CLEAR     61  55  82 CALM      30.16R
MASON CITY     CLEAR     60  58  92 W5        30.16R
FOREST CITY *    N/A    N/A N/A N/A MISG        N/A
WEBSTER CITY * CLEAR     63  59  88 NW8       30.12F
IOWA FALLS *     N/A     62  60  93 CALM      30.15S
$$

IAZ007>011-017>019-026>030-037>042-050>054-066-260500-
   NORTHEAST IOWA

CITY           SKY/WX    TMP DP  RH WIND       PRES   REMARKS
CEDAR RAPIDS   CLOUDY    63  63 100 W3        30.12R
CHARLES CITY * CLEAR     61  61 100 N3        30.15R
CLINTON *      CLOUDY    65  64  97 N3        30.11R
DECORAH *      CLEAR     61  61 100 CALM      30.13R
DUBUQUE        PTCLDY    65  61  87 CALM      30.12S
MONTICELLO *   PTCLDY    61  61 100 CALM      30.12R FOG
OELWEIN *      CLEAR     63  61  94 NW6       30.13S
WATERLOO       CLEAR     62  60  93 NW5       30.11S
$$

IAZ064-065-067-068-078-260500-
   EAST CENTRAL IOWA

CITY           SKY/WX    TMP DP  RH WIND       PRES   REMARKS
DAVENPORT      CLOUDY    64  62  93 N3        30.11S
IOWA CITY      CLOUDY    66  63  90 CALM      30.12S
MT. PLEASANT * MOCLDY    68  68  99 N3        30.11S
MUSCATINE *    PTCLDY    68  64  88 CALM      30.11S
QUAD CITIES    CLOUDY    67  64  90 CALM      30.10S
$$

IAZ062-063-075>077-085>089-095>099-260500-
   SOUTHEAST IOWA

CITY           SKY/WX    TMP DP  RH WIND       PRES   REMARKS
BURLINGTON     CLOUDY    69  65  86 N7        30.10S
FAIRFIELD *    CLOUDY    64  63  94 N6        30.11S
FORT MADISON * CLOUDY    66  64  94 N5        30.11R
KEOKUK *       CLOUDY    70  66  88 N6        30.09R
OSKALOOSA *    CLOUDY    64  62  96 N6        30.12S
OTTUMWA        CLOUDY    67  64  90 N5        30.12R
WASHINGTON *   CLOUDY    68  64  88 N5        30.12S
$$

ABBREVIATIONS USED IN REMARKS
   TC - TEMPERATURES IN CELSIUS
  WCI - WIND CHILL INDEX
   HX - HEAT INDEX
  VSB - VISIBILITY
$$




USA.gov is the U.S. government's official web portal to all federal, state and local government web resources and services.